CW6242 Weather Reports


time (UTC)temp
C
wind
direction
speed
KPH
gust
KPH
rain 1hr
cm
rain 24hr
cm
rain mn
cm
humidity
%
barometer
mb
20260505041014 16 0.0 0.0 0.00 0.00 0.00 67 1016.3
20260505040014 16 0.0 0.0 0.00 0.00 0.00 67 1016.3
20260505035014 16 0.0 0.0 0.00 0.00 0.00 67 1016.2
20260505034014 16 0.0 0.0 0.00 0.00 0.00 66 1016.1
20260505033014 16 0.0 0.0 0.00 0.00 0.00 66 1016.1
20260505032016 16 0.0 0.0 0.00 0.00 0.00 67 1016.1
20260505031016 15 0.0 0.0 0.00 0.00 0.00 67 1016.1
20260505030056 15 0.0 0.0 0.00 0.00 0.00 68 1016.1
20260505025016 15 0.0 0.0 0.00 0.00 0.00 70 1016.1
20260505024016 15 0.0 0.0 0.00 0.00 0.00 71 1016.0
20260505023016 15 0.0 0.0 0.00 0.00 0.00 71 1016.1
20260505022036 15 0.0 0.0 0.00 0.00 0.00 71 1016.1
20260505021016 15 0.0 0.0 0.00 0.00 0.00 72 1016.3
20260505020016 15 0.0 0.0 0.00 0.00 0.00 72 1016.3
20260505015036 15 0.0 0.0 0.00 0.00 0.00 73 1016.3
20260505014016 15 0.0 0.0 0.00 0.00 0.00 74 1016.4
20260505013016 15 0.0 0.0 0.00 0.00 0.00 72 1016.3
20260505012016 15 0.0 0.0 0.00 0.00 0.00 70 1016.3
20260505011016 16 0.0 0.0 0.00 0.00 0.00 66 1016.3
20260505010016 16 90 1.6 8.0 0.00 0.00 0.00 60 1016.1
20260505005016 16 0.0 1.6 0.00 0.00 0.00 61 1016.0
20260505004016 16 0.0 0.0 0.00 0.00 0.00 61 1016.4
20260505003016 16 0.0 0.0 0.00 0.00 0.00 61 1016.7
20260505002016 16 0.0 0.0 0.00 0.00 0.00 66 1016.9
20260505001016 16 0.0 0.0 0.00 0.00 0.00 63 1017.2
20260505000016 16 0.0 0.0 0.00 0.00 0.00 63 1017.2
20260504235016 16 0.0 0.0 0.00 0.00 0.00 62 1017.2
20260504234016 16 0.0 0.0 0.00 0.00 0.00 61 1017.3
20260504233018 15 0.0 0.0 0.00 0.00 0.00 63 1017.4
20260504232018 15 0.0 1.6 0.00 0.00 0.00 65 1017.5
20260504231017 15 0.0 0.0 0.00 0.00 0.00 67 1017.6
20260504230017 16 0.0 0.0 0.00 0.00 0.00 71 1017.8
20260504225018 15 0.0 0.0 0.00 0.00 0.00 69 1017.9
20260504224018 15 0.0 0.0 0.00 0.00 0.00 67 1018.0
20260504223018 15 0.0 0.0 0.00 0.00 0.00 65 1017.9
20260504222038 15 0.0 0.0 0.00 0.00 0.00 64 1017.7
20260504221017 16 0.0 0.0 0.00 0.00 0.00 63 1017.8
20260504220017 16 0.0 0.0 0.00 0.00 0.00 66 1018.0
20260504215037 16 0.0 0.0 0.00 0.00 0.00 66 1018.0
20260504214016 16 0.0 0.0 0.00 0.00 0.00 66 1018.1
20260504213017 16 0.0 0.0 0.00 0.00 0.00 66 1018.2
20260504212016 16 0.0 0.0 0.00 0.00 0.00 66 1018.2
20260504211017 16 0.0 0.0 0.00 0.00 0.00 64 1018.2
20260504210056 16 0.0 0.0 0.00 0.00 0.00 63 1018.3
20260504205016 16 0.0 0.0 0.00 0.00 0.00 62 1018.1
20260504204017 16 0.0 0.0 0.00 0.00 0.00 64 1017.9
20260504203016 16 0.0 0.0 0.00 0.00 0.00 69 1017.9
20260504202017 16 0.0 0.0 0.00 0.00 0.00 66 1018.1
20260504201116 16 0.0 0.0 0.00 0.00 0.00 69 1018.1
20260504200017 16 0.0 0.0 0.00 0.00 0.00 68 1018.2
20260504195016 16 0.0 0.0 0.00 0.00 0.00 69 1018.2
20260504194017 16 0.0 0.0 0.00 0.00 0.00 71 1018.2
20260504193017 16 0.0 0.0 0.00 0.00 0.00 70 1018.1
20260504192017 16 0.0 0.0 0.00 0.00 0.00 70 1018.2
20260504191057 16 0.0 0.0 0.00 0.00 0.00 72 1018.0
20260504190036 16 0.0 0.0 0.00 0.00 0.00 71 1017.9
20260504185016 16 0.0 9.7 0.00 0.00 0.00 72 1017.8
20260504184016 16 0.0 1.6 0.00 0.00 0.00 71 1017.8
20260504183016 16 0.0 0.0 0.00 0.00 0.00 69 1017.8
20260504182016 16 0.0 0.0 0.00 0.00 0.00 68 1017.8
20260504181016 16 0.0 1.6 0.00 0.00 0.00 64 1017.8
20260504180016 17 0.0 3.2 0.00 0.00 0.00 63 1017.6
20260504175016 17 0.0 14.5 0.00 0.00 0.00 59 1017.6
20260504174036 17 0.0 1.6 0.00 0.00 0.00 62 1017.6
20260504173017 17 0.0 1.6 0.00 0.00 0.00 62 1017.5
20260504172016 18 0.0 0.0 0.00 0.00 0.00 59 1017.4
20260504171016 18 0.0 1.6 0.00 0.00 0.00 57 1017.3
20260504151018 18 0.0 12.9 0.00 0.00 0.00 59 1017.1
20260504141018 18 45 1.6 11.3 0.00 0.00 0.00 55 1017.3
20260504081057 18 0.0 0.0 0.00 0.00 0.00 62 1019.8
20260504050017 13 0.0 4.8 0.00 0.00 0.00 62 1019.2